Location: Nelson
(41.2830°S, 173.2830°E)
Time: 19:40:57
(UTC+12:00)

Cosmos-2242 - Pass Details

Date: 14 May 2021
Orbit: 591 x 616 km, 82.5° (Epoch: 19 June)

Event Time Altitude Azimuth Distance (km) Brightness Sun altitude
Rises 17:56:45 0° 195° (SSW) 2,918 6.5 -7.4°
Reaches altitude 10° 17:59:05 10° 201° (SSW) 2,001 5.7 -7.8°
Maximum altitude 18:03:17 43° 272° (W) 868 4.5 -8.6°
Drops below altitude 10° 18:07:23 10° 343° (NNW) 1,958 6.1 -9.3°
Sets 18:09:39 0° 350° (N) 2,848 6.8 -9.7°
